Tracking 18980 objects as of 21-Feb-2018
HD Live streaming from Space Station
objects crossing your sky now

FENGYUN 1C DEB

Track FENGYUN 1C DEB now!
10-day predictions


NORAD ID: 36667
Int'l Code: 1999-025DYM
Perigee: 816.3 km
Apogee: 1,009.9 km
Inclination: 97.8 °
Period: 103.1 minutes
Semi major axis: 7284 km
RCS: 0.013 m2 (small)
Launch date: May 10, 1999
Source: People's Republic of China (PRC)
Launch site: Taiyaun Space Center, China (TSC)

Note: This is SATELLITE DEBRIS
aabbcc
Your satellite tracking list
Your tracking list is empty




NASA's NSSDC Master Catalog

Two Line Element Set (TLE):
1 36667U 99025DYM 18039.10288821  .00000644  00000-0  45552-3 0  9992
2 36667  97.7724 152.4715 0132928 218.4880 140.6749 13.96489864517065
Source of the keplerian elements: AFSPC